VK3HAG Weather Reports


Display with metric or nautical units.
time (UTC)temp
F
wind
direction
speed
MPH
gust
MPH
rain 1hr
in
rain 24hr
in
rain mn
in
humidity
%
barometer
mb
20260505094504 58 0 0.0 0.0 0.00 0.01 0.01 73 1021.0
20260505093004 58 0 0.0 0.0 0.00 0.01 0.01 72 1021.0
20260505091504 58 0 0.0 0.0 0.00 0.01 0.01 73 1021.0
20260505090005 58 0 0.0 0.0 0.00 0.01 0.01 74 1020.9
20260505084505 58 0 0.0 0.0 0.00 0.01 0.01 73 1020.8
20260505083005 58 0 0.0 0.0 0.00 0.01 0.01 73 1020.7
20260505081504 58 0 0.0 0.0 0.00 0.01 0.01 72 1020.5
20260505080005 58 0 0.0 0.0 0.00 0.01 0.01 72 1020.4
20260505074504 58 0 0.0 0.0 0.00 0.01 0.01 72 1020.3
20260505073004 59 0 0.0 0.0 0.00 0.01 0.01 72 1020.1
20260505071505 59 0 0.0 0.0 0.00 0.01 0.01 72 1020.0
20260505070004 59 0 0.0 0.0 0.00 0.01 0.01 71 1019.9
20260505064504 59 0 0.0 0.0 0.00 0.01 0.01 72 1019.8
20260505063004 60 0 0.0 0.0 0.00 0.01 0.01 73 1019.7
20260505061504 60 0 0.0 0.0 0.00 0.01 0.01 72 1019.5
20260505060004 60 0 0.0 0.0 0.00 0.01 0.01 72 1019.4
20260505054504 60 0 0.0 0.0 0.00 0.01 0.01 71 1019.4
20260505053004 60 0 0.0 0.0 0.00 0.01 0.01 71 1019.1
20260505051505 60 0 0.0 0.0 0.00 0.01 0.01 71 1019.0
20260505041504 61 0 0.0 0.0 0.00 0.01 0.01 69 1018.5
20260505040005 61 152 0.0 2.0 0.00 0.01 0.01 68 1018.5
20260505034504 61 0 0.0 0.0 0.00 0.01 0.01 68 1018.4
20260505033004 61 0 0.0 0.0 0.00 0.01 0.01 68 1018.5
20260505031504 61 0 0.0 0.0 0.00 0.01 0.01 66 1018.5
20260505030004 61 0 0.0 0.0 0.00 0.01 0.01 67 1018.5
20260505024505 61 0 0.0 0.0 0.00 0.01 0.01 68 1018.7
20260505023005 61 1 0.0 1.0 0.00 0.01 0.01 68 1018.8
20260505021504 60 251 0.0 1.0 0.00 0.01 0.01 71 1018.9
20260505020004 60 1 0.0 1.0 0.00 0.01 0.01 71 1019.1
20260505014504 61 1 0.0 1.0 0.00 0.01 0.01 71 1019.1
20260505013004 60 10 0.0 2.0 0.00 0.01 0.01 70 1019.1
20260505011504 60 51 0.0 1.0 0.00 0.01 0.01 71 1019.1
20260505010004 59 143 0.0 1.0 0.00 0.01 0.01 73 1019.1
20260505004504 58 0 0.0 0.0 0.00 0.01 0.01 76 1019.0
20260505003005 58 0 0.0 0.0 0.00 0.01 0.01 77 1018.7
20260505001505 58 86 0.0 1.0 0.00 0.01 0.01 77 1018.7
20260505000004 57 0 0.0 0.0 0.00 0.01 0.01 80 1018.5
20260504234504 56 0 0.0 0.0 0.00 0.01 0.01 83 1018.5
20260504233004 56 274 0.0 1.0 0.00 0.01 0.01 85 1018.5
20260504231504 55 217 0.0 1.0 0.00 0.01 0.01 88 1018.4
20260504230005 55 270 0.0 1.0 0.00 0.01 0.01 91 1018.3
20260504224505 54 0 0.0 0.0 0.00 0.01 0.01 92 1018.1
20260504223004 53 0 0.0 0.0 0.00 0.01 0.01 93 1017.9
20260504221504 52 0 0.0 0.0 0.00 0.01 0.01 93 1017.6
20260504220004 52 0 0.0 0.0 0.00 0.01 0.01 92 1017.4
20260504214504 51 0 0.0 0.0 0.00 0.01 0.01 91 1017.1
20260504213004 52 0 0.0 0.0 0.00 0.01 0.01 91 1016.8
20260504211504 52 0 0.0 0.0 0.00 0.01 0.01 91 1016.5
20260504210004 53 0 0.0 0.0 0.00 0.01 0.01 90 1016.4
20260504204504 53 0 0.0 0.0 0.00 0.01 0.01 90 1016.2
20260504203004 53 0 0.0 0.0 0.00 0.01 0.01 90 1016.1
20260504201504 53 0 0.0 0.0 0.00 0.01 0.01 90 1015.7
20260504200004 54 0 0.0 0.0 0.01 0.01 0.01 90 1015.5
20260504194504 54 0 0.0 0.0 0.01 0.01 0.01 89 1015.4
20260504193004 54 0 0.0 0.0 0.01 0.01 0.01 88 1015.3
20260504191504 55 0 0.0 0.0 0.01 0.01 0.01 86 1015.2
20260504190004 55 0 0.0 0.0 0.00 0.00 0.00 84 1014.9
20260504184504 54 0 0.0 0.0 0.00 0.00 0.00 84 1014.7
20260504183005 54 0 0.0 0.0 0.00 0.00 0.00 85 1014.5
20260504181504 54 0 0.0 0.0 0.00 0.00 0.00 84 1014.3
20260504180004 55 0 0.0 0.0 0.00 0.00 0.00 83 1014.1
20260504174504 55 0 0.0 0.0 0.00 0.00 0.00 83 1014.1
20260504173004 55 0 0.0 0.0 0.00 0.00 0.00 82 1014.1
20260504171504 55 0 0.0 0.0 0.00 0.00 0.00 82 1014.0